Location: Palomar Mountain Lodge
(33.3110°N, 116.8495°W)
Time: 07:45:46
(UTC-07:00)

Cosmos 1340 - Pass Details

Date: 19 May 2017
Orbit: 505 x 509 km, 81.2° (Epoch: 22 September)

Event Time Altitude Azimuth Distance (km) Brightness Sun altitude
Rises 20:41:45 0° 200° (SSW) 2,597 6.1 -11.4°
Reaches altitude 10° 20:43:56 10° 207° (SSW) 1,717 5.3 -11.8°
Maximum altitude 20:47:33 44° 280° (W) 715 3.9 -12.4°
Drops below altitude 10° 20:51:11 10° 354° (N) 1,731 6.0 -13.1°
Sets 20:53:24 0° 1° (N) 2,621 6.8 -13.4°
